Retour au catalogue

DELTA 1 DEB *

ActifSSO
NORAD 42557·DEBRIS·🇺🇸 United States

Lancé Jul 23, 1972 depuis Vandenberg Space Force Base

Loading…

Prochains Passages (prochaines 24 heures)

TLE

FraisSource: Space-Track

Époque: Sep 12, 2026, 01:44 UTC

1 42557U 72058JQ  26255.07238510  .00000028  00000-0  28047-4 0  9996
2 42557  98.5944 334.3611 0012283  20.9138  97.8997 14.29423893667883

Suivez DELTA 1 DEB * en temps réel avec AllMySat

Download on the App Store